EW1145 Weather Reports


Display with metric or nautical units.
time (UTC)temp
F
wind
direction
speed
MPH
gust
MPH
rain 1hr
in
rain 24hr
in
rain mn
in
humidity
%
barometer
mb
20260904041544 56 214 0.0 0.0 0.00 0.51 0.51 91 1009.6
20260904040043 56 214 0.0 0.0 0.00 0.51 0.51 90 1009.7
20260904034539 56 214 0.0 0.0 0.00 0.51 0.51 89 1009.5
20260904033044 56 214 0.0 0.0 0.00 0.51 0.51 89 1009.3
20260904031548 56 214 0.0 0.0 0.00 0.51 0.51 88 1009.2
20260904030039 57 214 0.0 0.0 0.00 0.51 0.51 88 1009.1
20260904024538 57 214 0.0 0.0 0.00 0.51 0.51 87 1009.1
20260904023037 58 214 0.0 0.0 0.00 0.51 0.51 85 1008.9
20260904021546 58 214 0.0 0.0 0.00 0.51 0.51 84 1008.9
20260904020041 58 214 0.0 0.0 0.00 0.51 0.51 82 1008.9
20260904014536 58 214 0.0 0.0 0.00 0.51 0.51 82 1009.0
20260904013039 59 214 0.0 1.0 0.00 0.51 0.51 81 1008.9
20260904011535 60 214 0.0 0.0 0.00 0.51 0.51 81 1008.9
20260904010034 60 214 0.0 0.0 0.00 0.51 0.51 79 1008.8
20260904004533 60 214 0.0 4.0 0.00 0.51 0.51 79 1008.9
20260904003033 60 214 1.0 4.0 0.00 0.51 0.51 75 1008.9
20260904001533 62 214 1.0 8.0 0.00 0.51 0.51 74 1008.8
20260904000032 63 199 2.0 7.0 0.00 0.51 0.51 74 1008.7
20260903234529 62 213 1.0 7.0 0.00 0.51 0.51 75 1008.7
20260903233033 61 182 0.0 8.0 0.00 0.51 0.51 78 1008.9
20260903231525 60 194 1.0 7.0 0.00 0.51 0.51 79 1009.0
20260903230023 59 200 0.0 7.0 0.00 0.53 0.51 82 1009.1
20260903224523 58 184 0.0 4.0 0.00 0.53 0.51 85 1009.2
20260903223020 58 186 1.0 10.0 0.00 0.53 0.51 87 1009.3
20260903221540 59 202 0.0 6.0 0.00 0.53 0.51 84 1009.1
20260903220020 60 154 0.0 7.0 0.00 0.55 0.51 86 1008.9
20260903214517 59 228 0.0 4.0 0.01 0.55 0.51 89 1009.0
20260903213021 59 185 0.0 7.0 0.01 0.55 0.51 90 1009.2
20260903211516 59 209 0.0 6.0 0.01 0.55 0.51 94 1009.2
20260903210015 58 200 0.0 4.0 0.02 0.56 0.51 95 1009.2
20260903204513 58 176 0.0 3.0 0.02 0.56 0.50 96 1009.1
20260903203019 57 207 0.0 7.0 0.13 0.56 0.50 97 1009.1
20260903201513 56 219 0.0 6.0 0.15 0.56 0.50 96 1009.2
20260903200020 56 218 0.0 6.0 0.16 0.57 0.49 96 1009.1
20260903194524 56 215 0.0 5.0 0.15 0.56 0.48 94 1009.0
20260903193009 57 211 0.0 0.0 0.05 0.46 0.37 94 1009.0
20260903191510 57 195 0.0 2.0 0.05 0.44 0.35 95 1009.2
20260903190008 56 121 0.0 2.0 0.03 0.48 0.33 93 1009.2
20260903184508 55 175 0.0 0.0 0.03 0.48 0.33 92 1009.4
20260903183007 56 175 0.0 4.0 0.03 0.47 0.32 90 1009.4
20260903181507 57 175 0.0 2.0 0.01 0.45 0.30 92 1009.1
20260903180013 57 180 1.0 9.0 0.01 0.51 0.30 90 1008.8
20260903174505 57 195 0.0 7.0 0.01 0.51 0.30 92 1008.9
20260903173005 58 222 1.0 4.0 0.00 0.50 0.28 94 1009.0
20260903171502 56 197 0.0 3.0 0.00 0.50 0.28 96 1009.1
20260903170001 56 198 0.0 5.0 0.00 0.55 0.28 96 1009.2
20260903164609 55 219 0.0 3.0 0.00 0.55 0.28 97 1009.1
20260903163059 55 222 1.0 7.0 0.00 0.55 0.28 97 1009.3
20260903161559 54 194 0.0 1.0 0.01 0.55 0.28 97 1009.4
20260903160107 54 194 0.0 4.0 0.03 0.55 0.28 97 1009.4
20260903154557 54 194 0.0 1.0 0.05 0.55 0.28 97 1009.3
20260903153054 54 170 0.0 3.0 0.06 0.55 0.28 97 1009.1
20260903151556 54 221 0.0 5.0 0.07 0.54 0.28 97 1009.1
20260903150059 54 209 0.0 4.0 0.04 0.51 0.25 97 1009.0
20260903144555 54 209 0.0 4.0 0.04 0.50 0.24 97 1008.9
20260903143052 54 201 0.0 4.0 0.04 0.49 0.23 97 1008.8
20260903141553 54 200 0.0 3.0 0.07 0.47 0.21 97 1008.8
20260903140051 54 200 0.0 1.0 0.08 0.47 0.21 97 1008.7
20260903134550 54 200 0.0 3.0 0.07 0.46 0.20 97 1008.7
20260903133051 54 200 0.0 3.0 0.10 0.45 0.19 96 1008.5
20260903131549 54 200 0.0 2.0 0.08 0.40 0.14 96 1008.6
20260903130110 54 200 0.0 1.0 0.09 0.39 0.13 96 1008.4
20260903124547 54 206 0.0 2.0 0.10 0.39 0.13 96 1008.4
20260903123045 54 209 0.0 3.0 0.07 0.34 0.08 95 1008.6
20260903121547 54 232 0.0 4.0 0.06 0.32 0.06 95 1008.7
20260903120042 55 204 0.0 2.0 0.04 0.30 0.04 94 1008.6
20260903114541 55 204 0.0 0.0 0.02 0.28 0.02 93 1008.6
20260903113042 55 198 0.0 3.0 0.01 0.27 0.01 93 1008.7
20260903111539 55 193 0.0 3.0 0.00 0.26 0.00 92 1008.6
20260903110108 55 193 0.0 1.0 0.00 0.26 0.00 92 1008.5
20260903104538 55 177 0.0 4.0 0.00 0.26 0.00 92 1008.6
20260903103038 55 198 0.0 4.0 0.00 0.26 0.00 92 1008.6
20260903101536 55 215 0.0 6.0 0.00 0.26 0.00 92 1008.6
20260903100037 55 252 0.0 4.0 0.00 0.26 0.00 92 1008.5
20260903094549 55 190 0.0 1.0 0.00 0.26 0.00 92 1008.5
20260903093037 55 190 0.0 3.0 0.00 0.26 0.00 92 1008.5
20260903091534 55 188 0.0 2.0 0.00 0.26 0.00 92 1008.7
20260903090034 55 188 0.0 3.0 0.00 0.26 0.00 93 1008.6
20260903084533 55 188 0.0 2.0 0.00 0.26 0.00 94 1008.7
20260903083031 55 188 0.0 3.0 0.00 0.26 0.00 94 1008.8
20260903081540 55 188 0.0 3.0 0.00 0.26 0.00 94 1008.8
20260903080030 55 188 0.0 2.0 0.00 0.26 0.00 94 1008.8
20260903074529 56 187 0.0 1.0 0.00 0.26 0.00 93 1008.9
20260903073027 56 136 0.0 1.0 0.00 0.26 0.00 93 1009.0
20260903071527 56 198 0.0 2.0 0.00 0.26 0.00 93 1008.9
20260903070034 56 198 0.0 0.0 0.00 0.26 0.26 93 1008.8
20260903064524 55 198 0.0 0.0 0.00 0.26 0.26 93 1008.8
20260903063024 55 198 0.0 0.0 0.00 0.26 0.26 93 1008.8
20260903061530 55 198 0.0 0.0 0.00 0.26 0.26 93 1008.7
20260903060023 55 198 0.0 1.0 0.00 0.26 0.26 92 1008.9
20260903054540 55 198 0.0 0.0 0.00 0.26 0.26 92 1009.0
20260903053030 54 198 0.0 0.0 0.00 0.26 0.26 93 1008.9
20260903051522 54 198 0.0 0.0 0.00 0.26 0.26 93 1008.9
20260903050022 54 198 0.0 0.0 0.00 0.26 0.26 93 1008.7
20260903044524 54 198 0.0 0.0 0.00 0.26 0.26 93 1008.6
20260903043024 53 198 0.0 0.0 0.00 0.26 0.26 93 1008.4